699  
ASUS46 KPQR 262010  
RWROR  
 
OREGON REGIONAL WEATHER ROUNDUP  
NATIONAL WEATHER SERVICE PORTLAND OR  
100 PM PDT SUN MAR 26 2017  
 
NOTE: "FAIR" INDICATES FEW OR NO CLOUDS BELOW 12,000 FEET WITH  
NO SIGNIFICANT WEATHER AND/OR S TO VISIBILITY
.  
 
ORZ001>013-262100-  
NORTHWEST OREGON  
 
 
CITY SKY/WX TMP DP RH WIND PRES REMARKS
 
ASTORIA CLOUDY 46 42 86 E6 29.71F  
NEWPORT LGT RAIN 48 46 93 S22G28 29.79R  
PORTLAND LGT RAIN 46 45 96 SE13 29.80F  
VANCOUVER WA LGT RAIN 46 45 96 SE9 29.80F  
SCAPPOOSE LGT RAIN 46 45 96 S6 29.80F  
HILLSBORO LGT RAIN 47 45 93 SE10 29.79F FOG  
AURORA LGT RAIN 48 45 89 CALM 29.80F  
MCMINNVILLE RAIN 47 44 90 SE5 29.80S FOG  
SALEM LGT RAIN 49 45 86 S12 29.78F FOG  
CORVALLIS CLOUDY 48 45 87 S6 29.77F  
EUGENE LGT RAIN 50 47 89 S10 29.80S  

 
 
ORZ021-028-262100-  
SOUTHWEST OREGON  
 
 
CITY SKY/WX TMP DP RH WIND PRES REMARKS
 
NORTH BEND CLOUDY 54 50 87 S12G21 29.81S  
BROOKINGS LGT RAIN 49 48 97 S13 29.90R  
ROSEBURG LGT RAIN 54 44 69 VRB7 29.82F  
SEXTON SUMMIT LGT RAIN 39 38 96 S15G23 29.81F VSB 3/4 WCI 31  
MEDFORD LGT RAIN 50 44 80 NE6 29.86F  

 
 
ORZ014>016-041-262100-  
COLUMBIA GORGE  
 
 
CITY SKY/WX TMP DP RH WIND PRES REMARKS
 
TROUTDALE LGT RAIN 46 43 89 E15 29.81F  
THE DALLES LGT RAIN 49 43 80 NE12 29.85F  

 
 
ORZ029>031-041-044-049-050-061>064-502-503-505>511-262100-  
EASTERN OREGON  
 
 
CITY SKY/WX TMP DP RH WIND PRES REMARKS
 
REDMOND CLOUDY 49 34 56 S13G22 29.79F  
BEND PTSUNNY 46 36 66 SW12 29.80F  
PRINEVILLE PTSUNNY 46 39 76 SE12G18 29.81F  
KLAMATH FALLS CLOUDY 47 37 68 SW9 29.88F  
LAKEVIEW CLOUDY 39 32 75 S20G25 29.94F WCI 30  
HERMISTON LGT RAIN 45 42 89 NE5 29.88F  
PENDLETON LGT RAIN 43 40 89 NW3 29.88S  
JOHN DAY CLOUDY 44 37 75 SW6G16 29.87F  
MEACHAM LGT RAIN 39 33 79 CALM 29.84F  
LA GRANDE CLOUDY 48 37 66 SW6 29.84F  
BAKER CITY CLOUDY 47 30 51 S12 29.88S  
BURNS LGT RAIN 38 36 92 S14 29.91F WCI 30  
ROME N/A 46 31 55 SW20 29.94F  
ONTARIO CLOUDY 51 37 58 SW8 29.94R  

 
 
 
CLICK HERE TO GO TO PREVIOUS BULLETINS.

The Nexlab OR Page Main Text Page